Weather History for Orange, VA

Change the Weather History Date:

Thursday, August 15, 2013

  Actual Average Record
Temperature  
Mean Temperature 63 °F -  
Max Temperature 75 °F 84 °F 98 °F (1953)
Min Temperature 51 °F 64 °F 51 °F (1961)
Degree Days  
Heating Degree Days 2    
Growing Degree Days 13 (Base 50)    
Moisture  
Dew Point 55 °F    
Average Humidity 78    
Maximum Humidity 100    
Minimum Humidity 47    
Precipitation  
Precipitation 0.00 in - - ()
Sea Level Pressure  
Sea Level Pressure 30.17 in    
Wind  
Wind Speed 2 mph (NNW)    
Max Wind Speed 8 mph    
Max Gust Speed -    
Visibility 10 miles    
Events      
Averages and records for this station are not official NWS values.
T = Trace of Precipitation, MM = Missing Value Source: NWS Daily Summary

Daily Weather History Graph

Daily Weather History Graph

Search for Another Location

Airport:

Trip Planner

Search our weather history database for the weather conditions in past years. The results will help you decide how hot, cold, wet, or windy it might be!

Date:

Astronomy

Aug. 15, 2013 Rise Set
Actual Time 6:27 AM EDT 8:05 PM EDT
Civil Twilight 5:58 AM EDT 8:33 PM EDT
Nautical Twilight 5:24 AM EDT 9:07 PM EDT
Astronomical Twilight 4:48 AM EDT 9:43 PM EDT
Moon 3:19 PM EDT (8/15) 12:36 AM EDT (8/15)
Length of Visible Light 14h 34m
Length of Day
13h 38m
Waxing Gibbous, 64% of the Moon is Illuminated
Aug 15
Waxing Gibbous
Aug 20
Full
Aug 28
Last Quarter
Sep 5
New
Sep 12
First Quarter

Hourly Weather History & Observations

Time (EDT) Temp. Dew Point Humidity Pressure Visibility Wind Dir Wind Speed Gust Speed Precip Events Conditions
12:15 AM 59.0 °F 53.6 °F 82% 30.15 in 10.0 mi NW 3.5 mph - N/A   Clear
12:35 AM 55.4 °F 53.6 °F 94% 30.15 in 10.0 mi Calm Calm - N/A   Clear
12:55 AM 55.4 °F 55.4 °F 100% 30.16 in 10.0 mi Calm Calm - N/A   Clear
1:15 AM 55.4 °F 55.4 °F 100% 30.16 in 10.0 mi Calm Calm - N/A   Clear
1:35 AM 53.6 °F 53.6 °F 100% 30.15 in 10.0 mi Calm Calm - N/A   Clear
1:55 AM 55.4 °F 55.4 °F 100% 30.15 in 10.0 mi Calm Calm - N/A   Clear
2:15 AM 55.4 °F 53.6 °F 94% 30.14 in 10.0 mi Calm Calm - N/A   Clear
2:35 AM 55.4 °F 53.6 °F 94% 30.14 in 10.0 mi Calm Calm - N/A   Clear
2:55 AM 55.4 °F 53.6 °F 94% 30.14 in 10.0 mi Calm Calm - N/A   Clear
3:15 AM 53.6 °F 53.6 °F 100% 30.14 in 10.0 mi Calm Calm - N/A   Clear
3:35 AM 57.2 °F 53.6 °F 88% 30.14 in 10.0 mi NW 4.6 mph - N/A   Clear
3:55 AM 57.2 °F 53.6 °F 88% 30.14 in 10.0 mi WNW 5.8 mph - N/A   Clear
4:15 AM 57.2 °F 53.6 °F 88% 30.15 in 10.0 mi WNW 3.5 mph - N/A   Clear
4:35 AM 55.4 °F 53.6 °F 94% 30.15 in 10.0 mi Calm Calm - N/A   Clear
4:55 AM 55.4 °F 53.6 °F 94% 30.15 in 10.0 mi Calm Calm - N/A   Clear
5:15 AM 53.6 °F 53.6 °F 100% 30.15 in 10.0 mi Calm Calm - N/A   Clear
5:35 AM 53.6 °F 53.6 °F 100% 30.15 in 10.0 mi Calm Calm - N/A   Clear
5:55 AM 53.6 °F 53.6 °F 100% 30.16 in 10.0 mi Calm Calm - N/A   Clear
6:15 AM 51.8 °F 51.8 °F 100% 30.17 in 10.0 mi Calm Calm - N/A   Clear
6:35 AM 51.8 °F 51.8 °F 100% 30.17 in 10.0 mi Calm Calm - N/A   Clear
6:55 AM 51.8 °F 51.8 °F 100% 30.18 in 10.0 mi Calm Calm - N/A   Clear
7:15 AM 55.4 °F 53.6 °F 94% 30.19 in 10.0 mi Calm Calm - N/A   Clear
7:35 AM 57.2 °F 53.6 °F 88% 30.19 in 10.0 mi Calm Calm - N/A   Clear
7:55 AM 59.0 °F 53.6 °F 82% 30.20 in 10.0 mi Calm Calm - N/A   Clear
8:15 AM 60.8 °F 55.4 °F 82% 30.21 in 10.0 mi Calm Calm - N/A   Clear
8:35 AM 60.8 °F 55.4 °F 82% 30.21 in 10.0 mi North 6.9 mph - N/A   Clear
8:55 AM 60.8 °F 55.4 °F 82% 30.21 in 10.0 mi NNW 6.9 mph - N/A   Clear
9:15 AM 62.6 °F 57.2 °F 82% 30.21 in 10.0 mi NW 3.5 mph - N/A   Clear
9:35 AM 62.6 °F 55.4 °F 77% 30.22 in 10.0 mi NW 6.9 mph - N/A   Clear
9:55 AM 64.4 °F 57.2 °F 77% 30.22 in 10.0 mi North 3.5 mph - N/A   Clear
10:15 AM 68.0 °F 55.4 °F 64% 30.22 in 10.0 mi NNE 6.9 mph - N/A   Clear
10:35 AM 68.0 °F 55.4 °F 64% 30.22 in 10.0 mi North 6.9 mph - N/A   Clear
10:55 AM 69.8 °F 55.4 °F 60% 30.22 in 10.0 mi NNE 8.1 mph - N/A   Clear
11:15 AM 69.8 °F 55.4 °F 60% 30.21 in 10.0 mi North 6.9 mph - N/A   Clear
11:35 AM 69.8 °F 55.4 °F 60% 30.21 in 10.0 mi ENE 4.6 mph - N/A   Clear
11:55 AM 71.6 °F 53.6 °F 53% 30.21 in 10.0 mi North 6.9 mph - N/A   Clear
12:15 PM 71.6 °F 55.4 °F 57% 30.21 in 10.0 mi North 3.5 mph - N/A   Scattered Clouds
12:35 PM 73.4 °F 55.4 °F 53% 30.20 in 10.0 mi NNW 8.1 mph - N/A   Clear
12:55 PM 71.6 °F 53.6 °F 53% 30.20 in 10.0 mi NW 3.5 mph - N/A   Clear
1:15 PM 73.4 °F 55.4 °F 53% 30.19 in 10.0 mi NNE 4.6 mph - N/A   Scattered Clouds
1:35 PM 73.4 °F 53.6 °F 50% 30.18 in 10.0 mi ENE 3.5 mph - N/A   Scattered Clouds
1:55 PM 73.4 °F 53.6 °F 50% 30.18 in 10.0 mi NNW 4.6 mph - N/A   Scattered Clouds
2:15 PM 73.4 °F 53.6 °F 50% 30.18 in 10.0 mi Calm Calm - N/A   Scattered Clouds
2:35 PM 73.4 °F 53.6 °F 50% 30.17 in 10.0 mi NNW 4.6 mph - N/A   Clear
2:55 PM 73.4 °F 53.6 °F 50% 30.16 in 10.0 mi East 3.5 mph - N/A   Clear
3:15 PM 75.2 °F 53.6 °F 47% 30.15 in 10.0 mi Calm Calm - N/A   Clear
3:35 PM 75.2 °F 53.6 °F 47% 30.15 in 10.0 mi Calm Calm - N/A   Scattered Clouds
3:55 PM 73.4 °F 53.6 °F 50% 30.14 in 10.0 mi Calm Calm - N/A   Mostly Cloudy
4:15 PM 71.6 °F 53.6 °F 53% 30.15 in 10.0 mi NW 3.5 mph - N/A   Scattered Clouds
4:35 PM 75.2 °F 55.4 °F 50% 30.14 in 10.0 mi NE 3.5 mph - N/A   Mostly Cloudy
4:55 PM 73.4 °F 53.6 °F 50% 30.14 in 10.0 mi NE 3.5 mph - N/A   Overcast
5:15 PM 73.4 °F 55.4 °F 53% 30.13 in 10.0 mi Calm Calm - N/A   Scattered Clouds
5:35 PM 73.4 °F 55.4 °F 53% 30.14 in 10.0 mi West 3.5 mph - N/A   Scattered Clouds
5:55 PM 73.4 °F 55.4 °F 53% 30.14 in 10.0 mi WNW 3.5 mph - N/A   Mostly Cloudy
6:15 PM 73.4 °F 55.4 °F 53% 30.14 in 10.0 mi West 3.5 mph - N/A   Scattered Clouds
6:35 PM 73.4 °F 53.6 °F 50% 30.13 in 10.0 mi Calm Calm - N/A   Scattered Clouds
6:55 PM 73.4 °F 55.4 °F 53% 30.13 in 10.0 mi Calm Calm - N/A   Clear
7:15 PM 71.6 °F 62.6 °F 73% 30.13 in 10.0 mi Calm Calm - N/A   Clear
7:35 PM 69.8 °F 62.6 °F 78% 30.14 in 10.0 mi Calm Calm - N/A   Clear
7:55 PM 66.2 °F 60.8 °F 83% 30.15 in 10.0 mi Calm Calm - N/A   Clear
8:15 PM 62.6 °F 60.8 °F 94% 30.15 in 10.0 mi Calm Calm - N/A   Clear
8:35 PM 60.8 °F 60.8 °F 100% 30.16 in 10.0 mi Calm Calm - N/A   Clear
8:55 PM 59.0 °F 59.0 °F 100% 30.16 in 10.0 mi Calm Calm - N/A   Clear
9:15 PM 59.0 °F 59.0 °F 100% 30.17 in 10.0 mi Calm Calm - N/A   Clear
9:35 PM 59.0 °F 59.0 °F 100% 30.18 in 10.0 mi Calm Calm - N/A   Clear
9:55 PM 57.2 °F 57.2 °F 100% 30.18 in 10.0 mi Calm Calm - N/A   Clear
10:15 PM 57.2 °F 57.2 °F 100% 30.18 in 10.0 mi Calm Calm - N/A   Clear
10:35 PM 57.2 °F 57.2 °F 100% 30.18 in 10.0 mi Calm Calm - N/A   Clear
10:55 PM 55.4 °F 55.4 °F 100% 30.18 in 10.0 mi Calm Calm - N/A   Clear
11:15 PM 55.4 °F 55.4 °F 100% 30.18 in 10.0 mi Calm Calm - N/A   Clear
11:35 PM 55.4 °F 55.4 °F 100% 30.18 in 10.0 mi Calm Calm - N/A   Clear
11:55 PM 55.4 °F 55.4 °F 100% 30.18 in 10.0 mi Calm Calm - N/A   Clear